• In Deutschland
  • Länderverzeichnis
  • Für 7 Tage
  • Wassertemperatur
  • Satellitenkarten
  • Wetterkarte
  • Widgets
  • user-avatar
    Anmelden

    Stündliche Wetter Ushuaia

    Heute, 21 Februar, Mittwoch

    Zeit Temperatur Niederschläge Wind Luftdruck Luftfeuchtigkeit
    00:00 +8°C° 0 mm 3 m/S 731 mmHg 81%
    01:00 +7°C° 0 mm 4 m/S 730 mmHg 79%
    02:00 +7°C° 0 mm 5 m/S 729 mmHg 73%
    03:00 +8°C° 0 mm 6 m/S 728 mmHg 68%
    04:00 +9°C° 0 mm 7 m/S 726 mmHg 62%
    05:00 +9°C° 0,1 mm 8 m/S 725 mmHg 66%
    06:00 +9°C° 0,1 mm 8 m/S 724 mmHg 70%
    07:00 +10°C° 0,1 mm 8 m/S 724 mmHg 73%
    08:00 +10°C° 0,4 mm 8 m/S 723 mmHg 74%
    09:00 +11°C° 0,4 mm 8 m/S 722 mmHg 74%
    10:00 +11°C° 0,4 mm 8 m/S 721 mmHg 74%
    11:00 +12°C° 0,1 mm 9 m/S 721 mmHg 70%
    12:00 +13°C° 0,1 mm 9 m/S 721 mmHg 65%
    13:00 +13°C° 0,1 mm 10 m/S 720 mmHg 61%
    14:00 +11°C° 0,2 mm 9 m/S 722 mmHg 64%
    15:00 +9°C° 0,2 mm 8 m/S 723 mmHg 68%
    16:00 +6°C° 0,2 mm 8 m/S 724 mmHg 72%
    17:00 +5°C° 0 mm 7 m/S 725 mmHg 71%
    18:00 +4°C° 0 mm 6 m/S 727 mmHg 70%
    19:00 +3°C° 0 mm 5 m/S 728 mmHg 69%
    20:00 +3°C° 0 mm 5 m/S 729 mmHg 71%
    21:00 +3°C° 0 mm 5 m/S 730 mmHg 73%
    22:00 +2°C° 0 mm 5 m/S 731 mmHg 74%
    23:00 +3°C° 0 mm 4 m/S 731 mmHg 75%

    Morgen, 22 Februar, Donnerstag

    Zeit Temperatur Niederschläge Wind Luftdruck Luftfeuchtigkeit
    00:00 +4°C° 0 mm 3 m/S 731 mmHg 76%
    01:00 +4°C° 0 mm 3 m/S 732 mmHg 77%
    02:00 +4°C° 0,1 mm 3 m/S 732 mmHg 79%
    03:00 +4°C° 0,1 mm 4 m/S 732 mmHg 82%
    04:00 +5°C° 0,1 mm 4 m/S 732 mmHg 85%
    05:00 +6°C° 0,1 mm 5 m/S 733 mmHg 84%
    06:00 +7°C° 0,1 mm 5 m/S 733 mmHg 83%
    07:00 +8°C° 0,1 mm 6 m/S 734 mmHg 83%
    08:00 +9°C° 0 mm 7 m/S 735 mmHg 76%
    09:00 +10°C° 0 mm 8 m/S 735 mmHg 70%
    10:00 +10°C° 0 mm 9 m/S 736 mmHg 64%
    11:00 +11°C° 0 mm 8 m/S 737 mmHg 61%
    12:00 +12°C° 0 mm 8 m/S 737 mmHg 59%
    13:00 +13°C° 0 mm 8 m/S 737 mmHg 56%
    14:00 +12°C° 0 mm 8 m/S 738 mmHg 57%
    15:00 +12°C° 0 mm 7 m/S 738 mmHg 58%
    16:00 +12°C° 0 mm 7 m/S 738 mmHg 59%
    17:00 +11°C° 0 mm 6 m/S 739 mmHg 64%
    18:00 +10°C° 0 mm 5 m/S 739 mmHg 69%
    19:00 +10°C° 0 mm 4 m/S 739 mmHg 74%
    20:00 +8°C° 0 mm 4 m/S 739 mmHg 77%
    21:00 +8°C° 0 mm 4 m/S 739 mmHg 79%
    22:00 +7°C° 0 mm 4 m/S 740 mmHg 82%
    23:00 +7°C° 0 mm 4 m/S 739 mmHg 84%

    übermorgen, 23 Februar, Freitag

    Zeit Temperatur Niederschläge Wind Luftdruck Luftfeuchtigkeit
    00:00 +7°C° 0 mm 4 m/S 739 mmHg 86%
    01:00 +7°C° 0 mm 4 m/S 739 mmHg 88%
    02:00 +8°C° 0 mm 3 m/S 739 mmHg 88%
    03:00 +8°C° 0 mm 3 m/S 739 mmHg 88%
    04:00 +8°C° 0 mm 3 m/S 739 mmHg 87%
    05:00 +8°C° 0 mm 4 m/S 739 mmHg 84%
    06:00 +8°C° 0 mm 4 m/S 739 mmHg 80%
    07:00 +9°C° 0 mm 5 m/S 739 mmHg 76%
    08:00 +10°C° 0,1 mm 5 m/S 738 mmHg 74%
    09:00 +11°C° 0,1 mm 6 m/S 738 mmHg 72%
    10:00 +11°C° 0,1 mm 6 m/S 738 mmHg 70%
    11:00 +13°C° 0 mm 6 m/S 738 mmHg 68%
    12:00 +14°C° 0 mm 7 m/S 738 mmHg 67%
    13:00 +15°C° 0 mm 7 m/S 738 mmHg 65%
    14:00 +15°C° 0 mm 7 m/S 738 mmHg 65%
    15:00 +15°C° 0 mm 6 m/S 738 mmHg 64%
    16:00 +15°C° 0 mm 6 m/S 738 mmHg 64%
    17:00 +14°C° 0 mm 5 m/S 738 mmHg 68%
    18:00 +13°C° 0 mm 5 m/S 737 mmHg 73%
    19:00 +12°C° 0 mm 4 m/S 737 mmHg 77%
    20:00 +11°C° 0 mm 4 m/S 737 mmHg 77%
    21:00 +11°C° 0 mm 4 m/S 737 mmHg 76%
    22:00 +9°C° 0 mm 5 m/S 736 mmHg 76%
    23:00 +9°C° 0 mm 5 m/S 736 mmHg 75%

    24 Februar, Samstag

    Zeit Temperatur Niederschläge Wind Luftdruck Luftfeuchtigkeit
    00:00 +9°C° 0 mm 5 m/S 735 mmHg 75%
    01:00 +9°C° 0 mm 5 m/S 735 mmHg 75%
    02:00 +9°C° 0 mm 5 m/S 734 mmHg 72%
    03:00 +9°C° 0 mm 5 m/S 733 mmHg 70%
    04:00 +9°C° 0 mm 5 m/S 732 mmHg 68%
    05:00 +10°C° 0 mm 5 m/S 732 mmHg 63%
    06:00 +12°C° 0 mm 5 m/S 731 mmHg 58%
    07:00 +13°C° 0 mm 5 m/S 730 mmHg 53%
    08:00 +15°C° 0 mm 6 m/S 730 mmHg 46%
    09:00 +17°C° 0 mm 7 m/S 730 mmHg 40%
    10:00 +20°C° 0 mm 7 m/S 729 mmHg 33%
    11:00 +20°C° 0 mm 8 m/S 729 mmHg 31%
    12:00 +21°C° 0 mm 8 m/S 728 mmHg 29%
    13:00 +22°C° 0 mm 9 m/S 727 mmHg 27%
    14:00 +19°C° 0 mm 9 m/S 727 mmHg 35%
    15:00 +18°C° 0 mm 9 m/S 727 mmHg 43%
    16:00 +16°C° 0 mm 8 m/S 727 mmHg 51%
    17:00 +14°C° 0,2 mm 7 m/S 728 mmHg 62%
    18:00 +11°C° 0,2 mm 6 m/S 728 mmHg 72%
    19:00 +11°C° 0,2 mm 4 m/S 728 mmHg 82%
    20:00 +10°C° 0 mm 4 m/S 729 mmHg 81%
    21:00 +7°C° 0 mm 5 m/S 730 mmHg 81%
    22:00 +6°C° 0 mm 5 m/S 730 mmHg 80%
    23:00 +6°C° 0 mm 4 m/S 731 mmHg 80%

    25 Februar, Sonntag

    Zeit Temperatur Niederschläge Wind Luftdruck Luftfeuchtigkeit
    00:00 +5°C° 0 mm 4 m/S 731 mmHg 80%
    01:00 +4°C° 0 mm 4 m/S 732 mmHg 80%
    02:00 +4°C° 0 mm 3 m/S 732 mmHg 80%
    03:00 +4°C° 0 mm 3 m/S 733 mmHg 81%
    04:00 +4°C° 0 mm 3 m/S 733 mmHg 82%
    05:00 +5°C° 0 mm 3 m/S 734 mmHg 77%
    06:00 +6°C° 0 mm 4 m/S 734 mmHg 73%
    07:00 +7°C° 0 mm 4 m/S 734 mmHg 69%
    08:00 +8°C° 0 mm 5 m/S 734 mmHg 64%
    09:00 +9°C° 0 mm 6 m/S 734 mmHg 60%
    10:00 +10°C° 0 mm 6 m/S 734 mmHg 55%
    11:00 +10°C° 0 mm 7 m/S 733 mmHg 54%
    12:00 +11°C° 0 mm 8 m/S 733 mmHg 53%
    13:00 +12°C° 0 mm 8 m/S 732 mmHg 52%
    14:00 +11°C° 0 mm 8 m/S 732 mmHg 55%
    15:00 +11°C° 0 mm 9 m/S 732 mmHg 59%
    16:00 +10°C° 0 mm 9 m/S 731 mmHg 62%
    17:00 +10°C° 0,2 mm 8 m/S 732 mmHg 67%
    18:00 +9°C° 0,2 mm 7 m/S 732 mmHg 72%
    19:00 +8°C° 0,2 mm 6 m/S 732 mmHg 77%
    20:00 +8°C° 0,5 mm 5 m/S 732 mmHg 80%
    21:00 +8°C° 0,5 mm 5 m/S 733 mmHg 83%
    22:00 +7°C° 0,5 mm 4 m/S 733 mmHg 86%
    23:00 +6°C° 0,1 mm 4 m/S 733 mmHg 87%

    26 Februar, Montag

    Zeit Temperatur Niederschläge Wind Luftdruck Luftfeuchtigkeit
    00:00 +7°C° 0,1 mm 3 m/S 734 mmHg 87%
    01:00 +5°C° 0,1 mm 3 m/S 734 mmHg 87%
    02:00 +5°C° 0 mm 3 m/S 734 mmHg 87%
    03:00 +4°C° 0 mm 3 m/S 735 mmHg 87%
    04:00 +3°C° 0 mm 3 m/S 735 mmHg 87%
    05:00 +4°C° 0 mm 3 m/S 736 mmHg 83%
    06:00 +4°C° 0 mm 4 m/S 736 mmHg 79%
    07:00 +5°C° 0 mm 4 m/S 737 mmHg 75%
    08:00 +6°C° 0,1 mm 5 m/S 737 mmHg 69%
    09:00 +6°C° 0,1 mm 5 m/S 738 mmHg 64%
    10:00 +7°C° 0,1 mm 5 m/S 738 mmHg 58%
    11:00 +7°C° 0 mm 5 m/S 739 mmHg 55%
    12:00 +8°C° 0 mm 5 m/S 739 mmHg 52%
    13:00 +9°C° 0 mm 5 m/S 739 mmHg 48%
    14:00 +8°C° 0 mm 5 m/S 739 mmHg 49%
    15:00 +8°C° 0 mm 4 m/S 740 mmHg 50%
    16:00 +8°C° 0 mm 4 m/S 740 mmHg 51%
    17:00 +6°C° 0 mm 4 m/S 740 mmHg 58%
    18:00 +5°C° 0 mm 3 m/S 741 mmHg 64%
    19:00 +4°C° 0 mm 2 m/S 741 mmHg 71%
    20:00 +4°C° 0 mm 2 m/S 741 mmHg 73%
    21:00 +4°C° 0 mm 2 m/S 741 mmHg 75%
    22:00 +4°C° 0 mm 1 m/S 741 mmHg 78%
    23:00 +4°C° 0 mm 1 m/S 741 mmHg 80%
    Mehr zeigen